INTELSAT 16 (IS-16)     
1 36397U 10006A   19261.49463216 -.00000248  00000-0  00000+0 0  9993
2 36397   0.0227 164.6577 0002673  27.4868 266.8372  1.00268573 35037
BREEZE-M R/B            
1 36398U 10006B   19261.20711441 -.00000179  00000-0  00000+0 0  9992
2 36398   8.0266  60.8012 0481389  15.1640 346.3625  0.86942991 30459
BREEZE-M DEB [TANK]     
1 36399U 10006C   19261.07483756  .00000088  00000-0  15375-3 0  9996
2 36399  45.5958 277.6638 7253369 252.7868  22.0124  2.26408656 78117